Temperature
19 18 17 17 17 17 17 17 16 16 16 16 16 16 16 16 15 15 15 15 15 15 15 16 15 15 15 15 15 15 16 16 16 16 16 16 16 15 15 14 14 13 13
20 18 17 17 17 17 17 16 16 16 16 16 16 16 16 16 16 15 15 15 15 16 16 16 16 15 15 15 15 15 15 16 16 16 16 15 15 15 15 14 14 13 13
20 19 18 17 17 17 17 16 16 16 16 16 16 16 16 16 15 15 15 15 16 16 16 16 16 16 16 15 15 15 15 16 16 16 15 15 15 15 15 14 14 14 13
20 19 18 17 17 17 17 16 16 16 16 16 16 16 16 16 16 15 15 16 16 16 16 16 16 16 16 16 16 15 15 15 15 15 15 15 15 14 14 14 14 14 13
19 19 18 17 17 17 16 16 16 16 16 16 17 16 16 16 16 16 16 16 16 16 16 16 16 16 16 16 16 15 15 15 15 15 15 15 14 14 14 14 14 14 13
19 19 18 17 17 17 16 16 16 16 16 17 17 17 16 16 16 16 16 16 16 16 16 16 16 16 16 16 16 16 15 15 15 15 15 14 14 14 14 14 13 13 13
19 18 17 17 17 17 17 16 17 17 17 17 17 17 16 16 16 16 16 16 16 16 16 16 16 16 16 16 16 15 15 15 15 15 15 14 14 14 14 13 13 13 13
18 18 17 16 16 16 17 17 17 17 17 17 17 17 17 17 17 17 16 16 16 16 16 16 16 16 16 16 15 15 15 15 15 15 14 14 14 14 14 13 13 13 13
17 17 16 16 16 16 16 17 17 17 17 17 17 17 17 17 17 17 17 17 17 16 16 16 16 16 16 15 15 15 15 15 15 15 14 14 14 13 13 13 14 13 13
16 16 16 16 16 16 16 16 16 17 17 17 17 17 17 17 17 17 17 17 17 17 16 16 16 16 16 16 16 16 15 15 15 14 14 14 13 13 13 13 13 13 13
15 15 16 16 16 16 16 16 16 16 17 17 17 17 18 18 17 17 17 17 17 17 16 16 16 16 16 16 16 15 15 15 15 14 14 14 13 13 13 13 13 13 13
15 15 15 16 16 16 16 16 16 16 16 17 17 17 17 17 17 17 17 17 17 17 16 16 16 16 16 16 16 15 15 15 15 15 14 14 13 13 13 13 13 13 13
16 16 16 16 16 16 16 16 16 16 17 17 17 17 17 17 17 17 17 17 17 16 16 16 16 16 16 15 15 15 15 15 15 15 14 14 13 13 13 13 13 13 13
16 16 16 16 16 16 16 16 16 16 17 17 17 17 17 17 17 17 17 17 16 16 16 16 15 15 15 15 15 15 15 15 15 14 14 14 13 13 12 12 12 12 13
17 17 16 16 16 16 16 16 16 16 16 16 16 16 16 16 16 16 16 16 16 16 15 15 15 15 15 15 15 14 14 14 14 14 14 13 13 13 12 12 12 12 12
17 17 16 16 16 16 16 16 16 16 16 16 16 16 16 16 16 16 16 15 15 15 15 15 14 14 14 14 14 14 14 14 14 13 13 13 13 12 12 12 11 11 11
17 16 16 16 16 16 16 16 16 16 15 16 16 16 16 15 15 15 15 15 15 14 14 14 14 14 14 14 13 13 13 13 13 13 13 12 12 12 12 12 11 11 11
17 16 16 16 16 16 16 15 15 15 15 15 15 15 15 15 15 15 15 15 14 14 13 13 13 13 13 13 13 13 12 12 12 12 12 12 12 12 12 11 11 11 11
17 16 16 16 16 16 15 15 15 15 15 15 15 15 15 14 14 14 14 14 14 13 13 13 13 13 13 12 12 12 12 12 12 12 12 12 12 12 12 11 11 11 11
17 17 16 16 16 16 15 15 15 15 15 15 15 15 14 14 14 14 14 14 13 13 13 13 13 13 12 12 12 12 12 12 12 12 12 12 12 12 12 12 11 11 11
17 17 17 16 16 16 16 15 15 15 15 15 15 15 14 14 14 14 14 14 13 13 13 13 13 13 12 12 12 12 12 12 12 12 12 12 12 12 12 12 11 11 11
17 17 17 16 16 16 16 15 15 15 15 15 15 14 14 14 14 14 14 13 13 13 13 13 13 13 12 12 12 11 11 12 12 12 12 12 12 12 12 12 11 11 11
16 16 16 16 16 16 15 15 15 15 15 14 14 14 14 14 14 14 14 13 13 13 13 13 13 12 12 12 12 11 11 11 11 11 11 12 12 12 12 11 11 11 11
16 15 15 15 15 15 15 15 14 14 14 14 14 14 14 14 13 13 13 13 13 13 13 13 12 12 12 11 11 11 11 11 10 10 10 11 11 11 11 11 11 10 10
15 15 15 15 14 14 14 14 14 13 13 13 13 13 13 13 13 13 13 12 12 12 12 12 12 12 11 11 11 10 10 10 10 10 10 10 10 10 10 10 10 10 10
14 14 14 13 13 13 13 13 13 13 12 12 12 12 12 12 12 12 12 12 11 11 11 11 11 11 11 11 10 10 10 10 9 9 9 9 9 9 9 9 9 9 9
Wind_Speed
6 11 19 17 16 14 14 14 14 14 14 14 13 12 11 12 12 12 12 12 13 14 14 15 15 16 18 18 19 18 17 16 16 15 14 13 12 12 11 10 9 9 10
9 15 20 18 16 15 14 14 14 14 14 13 12 11 11 11 12 12 13 13 13 14 14 14 15 16 17 17 17 17 16 15 14 13 12 11 10 10 10 9 7 7 8
10 16 20 18 16 15 14 14 14 14 14 12 11 10 11 12 13 13 13 13 13 13 13 14 14 15 15 15 15 14 13 12 11 10 9 7 7 9 8 7 7 7 7
14 15 17 18 17 16 15 15 15 14 13 12 11 10 11 13 14 13 13 13 13 13 13 13 13 13 13 13 12 11 10 9 8 7 7 7 6 7 8 7 7 7 7
12 14 17 18 17 16 16 16 15 14 13 12 11 10 11 13 14 14 13 13 13 12 12 12 12 12 11 11 10 9 8 7 7 7 7 6 6 7 8 7 7 8 8
9 14 18 18 17 17 17 16 16 15 13 12 11 10 11 13 13 13 13 12 12 11 11 10 10 10 9 9 9 8 7 8 8 7 6 6 6 6 8 9 9 9 9
8 13 17 18 17 17 17 17 16 15 13 12 11 10 11 12 12 12 12 11 10 9 9 8 8 8 8 8 8 7 7 8 7 5 5 5 4 6 8 8 8 9 10
8 11 16 18 17 17 17 17 16 15 13 12 11 11 11 11 11 11 10 9 8 7 7 6 6 6 6 7 7 7 7 6 5 4 3 3 3 6 8 8 8 8 8
8 9 11 15 16 17 17 16 15 14 13 12 11 10 11 11 10 9 9 8 7 6 5 4 4 4 4 5 6 6 5 5 4 2 1 1 2 6 7 7 7 7 7
6 6 8 12 14 14 15 16 15 14 13 12 11 11 11 10 9 8 8 7 6 5 4 3 2 2 3 4 5 5 4 4 3 2 2 1 1 3 5 4 4 5 5
7 5 6 8 10 12 13 14 14 13 12 11 10 11 10 8 7 7 6 6 6 5 4 3 2 1 2 3 4 4 3 3 3 3 4 4 3 3 4 3 3 3 3
9 7 5 6 8 10 10 10 11 11 11 10 10 10 8 7 6 5 5 5 5 5 4 3 2 0 1 2 2 2 1 2 4 5 6 6 5 5 4 4 2 2 2
10 9 7 6 8 8 7 8 8 9 9 10 10 10 9 7 5 4 4 4 4 4 4 3 3 2 1 1 2 2 1 2 4 6 7 8 8 7 6 5 4 3 2
9 9 8 7 7 8 8 7 8 8 8 8 10 11 9 6 5 5 5 6 5 5 5 5 5 5 4 4 3 3 4 4 6 7 9 10 10 9 7 7 6 5 5
9 9 8 7 7 7 7 7 7 8 9 10 11 12 12 8 6 7 6 7 8 8 7 7 7 6 6 6 6 5 6 7 8 9 10 11 12 11 10 9 9 8 7
9 9 8 8 7 8 6 6 7 9 10 10 11 13 14 12 9 7 7 7 9 11 11 10 9 7 6 6 6 7 8 8 9 11 12 13 13 14 13 12 12 11 10
8 7 7 8 7 7 7 8 8 10 10 10 11 13 14 14 12 10 7 7 10 13 12 10 8 7 5 5 5 8 9 10 11 12 14 14 15 16 16 16 15 14 13
6 6 7 7 7 8 6 7 7 9 10 10 11 12 14 15 14 11 7 7 12 12 10 6 4 5 6 6 6 6 7 9 11 13 14 15 16 17 18 19 18 17 16
5 5 5 5 6 7 6 6 7 7 8 9 10 10 12 14 15 13 9 10 12 9 8 6 6 6 7 8 8 7 6 6 9 11 12 15 18 19 19 21 22 21 20
3 4 4 3 3 4 4 3 3 4 4 7 8 9 11 11 13 12 10 10 10 6 6 7 8 7 7 7 6 7 6 7 6 7 10 13 16 19 20 21 21 22 23
4 4 4 4 2 3 2 2 2 3 2 2 4 6 7 8 10 10 7 7 7 8 9 9 7 8 7 4 3 5 5 7 8 8 7 8 11 17 18 20 20 20 20
5 5 5 4 4 3 2 2 1 1 1 1 1 1 2 3 5 6 6 5 5 7 8 8 7 5 5 5 5 3 4 4 6 8 7 8 9 11 13 18 19 20 21
5 5 5 5 5 4 3 2 2 2 2 2 2 2 3 4 4 4 5 5 4 6 7 8 8 8 7 5 6 6 5 5 4 3 5 7 7 7 7 12 16 19 21
5 5 6 6 6 5 4 3 3 2 1 1 2 2 4 4 4 4 4 4 4 4 6 7 7 7 7 7 5 7 7 4 4 4 3 4 5 7 8 7 11 16 19
5 6 6 7 7 6 6 4 4 2 0 1 2 3 4 4 4 5 5 4 3 4 5 6 6 6 6 7 5 4 6 6 6 6 7 4 3 5 6 6 7 11 16
5 6 6 7 7 6 6 6 4 3 1 2 3 3 4 3 3 5 6 4 4 4 5 5 5 6 6 6 6 5 5 4 5 6 8 6 5 4 4 4 6 8 13
Wind_Direction
175 171 161 158 154 148 142 137 132 126 121 115 109 105 103 104 105 102 98 95 91 85 82 82 83 87 88 88 88 86 86 84 82 79 78 81 82 82 80 74 71 74 79
155 164 159 159 155 150 146 142 136 132 126 120 115 111 110 112 111 108 104 100 96 89 87 87 89 91 92 90 89 88 87 86 85 81 75 74 80 83 82 78 77 76 76
147 159 157 158 153 149 145 142 139 135 130 125 120 116 117 117 117 114 108 102 99 93 91 92 94 95 94 93 91 89 88 87 87 81 72 65 75 85 85 81 76 73 73
149 154 154 155 152 148 146 143 141 137 131 128 125 121 121 120 119 117 113 107 102 97 96 96 97 97 95 92 91 89 89 89 88 77 65 53 55 80 83 83 75 68 67
144 149 154 153 151 148 146 145 141 136 133 131 128 126 126 125 123 119 115 112 107 103 103 102 100 97 93 89 87 86 89 92 90 78 65 52 45 70 77 79 74 68 65
136 147 153 150 150 147 147 146 142 140 137 134 132 130 129 127 124 120 118 116 112 110 109 107 105 99 91 86 85 88 96 100 97 82 64 50 44 71 80 81 75 67 62
137 146 152 151 150 149 148 147 146 144 142 140 138 136 129 125 125 125 124 122 120 118 116 114 110 103 92 85 83 90 103 111 104 87 65 48 50 75 82 82 75 68 64
138 145 152 153 152 151 150 150 151 150 149 147 145 142 137 131 130 133 133 132 130 127 123 120 115 105 93 85 83 88 103 115 111 91 68 42 54 87 86 83 78 71 66
134 140 147 152 154 154 154 154 155 155 154 153 151 144 140 140 143 146 147 146 144 141 134 127 118 101 86 79 79 86 104 121 129 112 79 42 84 96 93 86 80 74 69
126 134 142 147 151 153 156 159 160 160 160 158 154 149 145 146 154 157 157 160 160 159 156 151 136 95 73 70 75 84 108 131 151 172 186 205 144 117 109 96 85 79 76
151 142 141 141 146 151 156 163 164 165 165 162 158 155 151 153 159 164 170 177 176 176 178 185 190 107 71 67 71 83 111 157 183 202 213 219 211 168 136 124 105 93 85
175 172 159 150 149 151 155 159 163 165 168 167 164 163 163 166 170 174 186 196 198 197 203 216 228 237 51 47 43 55 108 187 203 216 223 226 225 203 172 166 162 150 124
181 181 175 163 157 154 149 156 162 165 169 174 176 177 176 175 181 188 202 219 222 220 225 244 259 261 279 303 325 329 296 237 229 231 231 234 233 222 199 192 197 201 196
183 189 182 171 165 166 161 166 172 173 178 184 189 188 181 181 191 202 211 221 225 226 229 240 249 257 265 270 271 278 276 262 250 243 240 238 238 231 219 213 213 217 218
188 192 188 177 175 173 171 177 183 189 193 196 197 197 196 193 201 209 218 224 229 230 230 234 241 249 258 266 266 260 259 258 253 246 244 242 238 234 229 227 225 224 224
194 195 188 186 185 179 179 185 191 197 201 201 204 206 206 207 209 212 220 225 231 232 234 234 237 242 252 259 265 259 254 254 251 246 243 242 239 235 232 232 231 229 228
195 190 187 191 185 185 189 195 199 201 203 206 214 215 213 213 215 216 219 225 233 235 235 238 243 244 249 249 254 256 250 247 244 242 240 238 238 236 233 233 235 232 230
192 188 192 195 184 192 195 198 201 202 204 213 219 221 220 220 220 218 222 229 233 231 226 225 225 236 243 243 249 249 243 241 240 239 236 234 234 234 232 232 234 234 232
187 179 179 183 181 193 196 198 203 204 209 216 220 223 226 226 224 221 227 232 228 223 223 227 226 222 238 241 243 247 241 237 240 237 231 230 230 230 229 230 231 232 231
135 147 153 155 163 171 173 176 190 206 214 218 220 225 229 230 228 225 231 231 221 219 225 224 230 225 233 241 247 252 246 239 235 232 234 232 229 230 229 229 229 231 230
100 110 118 123 112 123 129 156 178 209 213 212 221 229 231 234 232 227 233 229 218 224 229 225 226 232 238 223 238 268 261 239 237 238 231 230 232 231 229 228 228 228 229
113 107 102 100 93 98 121 131 147 154 191 210 240 250 261 265 253 241 239 237 224 230 234 230 221 227 228 190 198 238 282 287 253 239 230 231 236 233 230 230 228 226 226
118 114 108 95 84 75 85 96 76 64 41 28 5 341 334 320 298 277 265 256 245 236 241 236 226 229 242 221 203 214 242 254 279 272 242 238 238 233 235 234 230 230 229
128 109 101 92 79 66 69 88 110 130 201 313 323 317 325 337 336 325 305 285 268 255 250 247 236 232 237 243 218 225 237 241 252 285 264 254 243 241 240 237 234 233 232
122 109 100 90 75 64 64 78 93 96 40 318 335 337 336 337 346 348 336 322 299 279 271 263 253 240 235 241 227 213 231 240 235 253 273 265 269 252 243 236 235 235 233
115 105 100 92 76 63 66 67 79 84 47 12 354 342 336 330 336 351 345 335 318 302 293 282 269 257 247 245 241 219 211 216 217 229 256 257 254 256 246 239 236 237 235
Height
1536 1540 1543 1547 1549 1552 1554 1555 1557 1558 1558 1559 1559 1559 1558 1559 1559 1559 1560 1560 1560 1560 1560 1560 1561 1562 1563 1563 1564 1565 1566 1566 1566 1566 1565 1565 1565 1564 1564 1564 1564 1565 1565
1536 1539 1543 1547 1550 1552 1554 1556 1557 1558 1559 1559 1559 1559 1559 1560 1560 1561 1561 1561 1561 1561 1561 1561 1562 1563 1564 1565 1566 1566 1567 1567 1567 1567 1567 1567 1567 1566 1566 1566 1566 1567 1567
1536 1539 1543 1547 1550 1552 1555 1556 1558 1559 1559 1560 1560 1560 1561 1561 1562 1562 1563 1563 1563 1563 1563 1563 1563 1564 1565 1566 1567 1568 1568 1568 1569 1569 1569 1569 1568 1568 1568 1568 1569 1569 1569
1537 1540 1543 1547 1550 1553 1555 1557 1558 1559 1560 1560 1561 1561 1562 1563 1563 1564 1564 1565 1565 1565 1565 1565 1565 1566 1567 1568 1569 1569 1570 1570 1570 1570 1570 1570 1570 1570 1570 1570 1570 1571 1571
1538 1541 1544 1548 1551 1553 1555 1557 1558 1559 1560 1561 1561 1562 1563 1564 1565 1565 1566 1567 1567 1567 1567 1567 1568 1568 1569 1570 1571 1571 1572 1572 1572 1572 1572 1572 1572 1572 1572 1572 1572 1572 1572
1538 1542 1545 1548 1551 1553 1556 1557 1559 1560 1561 1561 1562 1563 1564 1565 1566 1567 1568 1568 1569 1569 1569 1570 1570 1571 1571 1572 1572 1573 1573 1574 1574 1574 1574 1574 1574 1574 1574 1574 1574 1574 1574
1538 1542 1546 1549 1551 1554 1556 1558 1559 1561 1562 1562 1563 1564 1565 1566 1567 1568 1569 1570 1570 1571 1571 1572 1572 1572 1573 1573 1574 1574 1575 1575 1575 1575 1575 1575 1575 1575 1575 1575 1575 1575 1575
1539 1542 1546 1549 1552 1554 1556 1558 1560 1561 1563 1563 1564 1565 1566 1566 1567 1568 1570 1570 1571 1572 1572 1573 1573 1574 1574 1575 1575 1575 1576 1576 1576 1576 1576 1576 1576 1576 1576 1576 1576 1575 1575
1540 1543 1546 1549 1552 1554 1556 1559 1560 1562 1563 1564 1565 1566 1566 1567 1568 1569 1570 1571 1572 1573 1573 1574 1574 1575 1575 1575 1576 1576 1577 1577 1577 1577 1577 1577 1577 1577 1577 1576 1576 1575 1575
1540 1543 1546 1549 1551 1554 1556 1558 1560 1562 1563 1564 1565 1566 1567 1568 1569 1569 1570 1571 1572 1573 1574 1575 1575 1575 1575 1576 1576 1577 1577 1577 1577 1578 1578 1578 1577 1577 1577 1576 1576 1575 1575
1540 1543 1546 1548 1551 1553 1556 1558 1560 1561 1563 1564 1565 1566 1567 1568 1569 1570 1571 1571 1572 1573 1574 1575 1575 1576 1576 1576 1576 1577 1577 1577 1578 1578 1578 1578 1578 1577 1577 1576 1576 1575 1574
1540 1542 1545 1547 1550 1552 1555 1557 1559 1560 1562 1563 1564 1566 1567 1567 1568 1569 1570 1571 1572 1573 1574 1575 1575 1576 1576 1576 1576 1577 1577 1577 1577 1578 1578 1577 1577 1577 1576 1576 1575 1574 1574
1540 1542 1544 1546 1549 1551 1554 1556 1558 1559 1561 1562 1564 1565 1566 1567 1567 1568 1569 1570 1571 1572 1573 1574 1575 1575 1576 1576 1576 1576 1576 1576 1577 1577 1577 1577 1576 1576 1575 1575 1574 1573 1573
1539 1541 1543 1545 1548 1550 1553 1555 1557 1558 1560 1561 1563 1564 1565 1566 1567 1568 1569 1570 1570 1571 1572 1573 1573 1574 1574 1574 1574 1574 1574 1575 1575 1575 1575 1575 1575 1575 1574 1573 1573 1572 1571
1538 1540 1542 1544 1547 1549 1551 1553 1555 1557 1559 1560 1561 1562 1563 1564 1566 1566 1567 1568 1569 1570 1571 1571 1572 1572 1572 1572 1572 1572 1572 1573 1573 1573 1573 1573 1573 1573 1573 1572 1571 1570 1570
1537 1539 1542 1544 1546 1548 1550 1552 1554 1556 1557 1558 1560 1561 1562 1563 1564 1565 1566 1566 1567 1568 1569 1569 1569 1569 1569 1569 1570 1570 1570 1570 1570 1570 1570 1570 1570 1570 1570 1570 1569 1569 1568
1536 1539 1541 1543 1545 1547 1549 1551 1552 1554 1555 1557 1558 1559 1560 1561 1562 1563 1564 1564 1565 1566 1566 1566 1567 1566 1566 1566 1566 1567 1567 1567 1566 1566 1566 1566 1567 1567 1567 1567 1567 1566 1566
1535 1537 1539 1541 1543 1545 1547 1549 1550 1552 1553 1554 1556 1557 1558 1559 1560 1560 1561 1561 1563 1563 1563 1563 1563 1563 1563 1562 1562 1563 1563 1563 1562 1562 1562 1562 1562 1563 1563 1563 1563 1563 1563
1533 1535 1537 1539 1541 1543 1545 1547 1548 1549 1550 1552 1553 1554 1555 1556 1556 1557 1557 1558 1559 1559 1559 1559 1559 1559 1558 1558 1558 1558 1558 1558 1558 1558 1557 1557 1557 1558 1558 1558 1558 1559 1559
1531 1533 1535 1537 1539 1541 1543 1544 1545 1546 1547 1549 1550 1550 1551 1552 1552 1553 1553 1553 1554 1554 1554 1554 1554 1554 1554 1553 1553 1552 1552 1552 1552 1552 1552 1552 1552 1552 1552 1552 1553 1553 1554
1529 1531 1532 1534 1536 1538 1540 1541 1542 1543 1544 1545 1546 1547 1547 1548 1548 1548 1548 1549 1549 1549 1549 1549 1549 1548 1548 1548 1547 1545 1544 1544 1544 1545 1545 1545 1545 1546 1546 1546 1546 1547 1547
1526 1527 1529 1531 1533 1535 1536 1538 1539 1540 1541 1542 1542 1543 1543 1543 1543 1543 1543 1543 1543 1543 1543 1544 1543 1543 1542 1543 1542 1540 1538 1537 1536 1537 1538 1538 1539 1539 1539 1539 1540 1540 1541
1522 1524 1526 1528 1530 1531 1533 1534 1535 1536 1536 1537 1537 1538 1538 1538 1538 1537 1537 1537 1537 1537 1537 1537 1538 1537 1536 1537 1537 1537 1534 1530 1530 1530 1531 1532 1532 1532 1532 1533 1533 1533 1534
1519 1521 1523 1525 1526 1528 1529 1530 1530 1531 1531 1532 1532 1532 1533 1532 1532 1531 1531 1531 1531 1530 1530 1530 1531 1530 1530 1530 1530 1530 1530 1528 1526 1523 1524 1525 1526 1526 1526 1526 1525 1525 1526
1516 1518 1519 1521 1522 1523 1525 1525 1526 1526 1526 1527 1527 1527 1527 1527 1526 1525 1525 1524 1524 1524 1523 1523 1524 1524 1523 1523 1523 1523 1523 1522 1521 1519 1516 1517 1518 1519 1519 1519 1518 1518 1518
1512 1514 1516 1518 1519 1520 1520 1521 1521 1522 1522 1522 1521 1521 1521 1521 1520 1519 1519 1518 1518 1517 1517 1517 1517 1517 1517 1517 1517 1516 1516 1516 1515 1514 1511 1510 1510 1511 1512 1512 1511 1511 1510